Regional Weather Roundup
Issued by NWS Kansas City/Pleasant Hill, MO

Home | Current Version | Previous Version | Graphics & Text | Print | Product List | Glossary Off
Versions: 1 2 3 4 5 6 7 8 9 10 11 12 13 14 15 16 17 18 19 20 21 22 23 24 25 26 27 28 29 30 31 32 33 34 35 36 37 38 39 40 41 42 43 44 45 46 47 48 49 50

000
ASUS43 KEAX 281910
RWREAX

WEATHER ROUNDUP FOR EASTERN KANSAS AND NORTHWEST MISSOURI
NATIONAL WEATHER SERVICE KANSAS CITY/PLEASANT HILL MO
200 PM CDT TUE JUL 28 2015

KSZ040-057-103>105-MOZ028-029-037-043-282000-
...KANSAS CITY METROPOLITAN AREA...

CITY           SKY/WX    TMP DP  RH WIND       PRES   REMARKS
K.C. INTL      PTSUNNY   93  75  55 S17G23    29.89F HX 104
K.C. DOWNTOWN  SUNNY     95  73  48 S13G24    29.88S HX 104
LEES SUMMIT    SUNNY     93  72  50 S10G23    29.92F HX 101
OLATHE - IXD   SUNNY     94  72  48 S21       29.90F HX 102
OLATHE - OJC   SUNNY     92  72  51 S16G25    29.90F HX  99
LAWRENCE       SUNNY     95  73  48 S10G21    29.88S HX 104

$$

MOZ001>008-011>017-020>025-030>033-038>040-044>046-053-054-282000-
...NORTHERN AND CENTRAL MISSOURI...

CITY           SKY/WX    TMP DP  RH WIND       PRES   REMARKS
ST. JOSEPH     SUNNY     92  76  59 S14       29.86S HX 104
MOSBY          CLEAR     93  70  46 S13       29.89F HX  99
WARRENSBURG    SUNNY     91  70  49 S14       29.92S HX  97
WHITEMAN AFB   MOSUNNY   95  72  46 SW13G23   29.92F HX 103
CLINTON          N/A     93  73  52 S10       29.94F HX 102
SEDALIA        SUNNY     95  74  50 S12       29.96F HX 105
WARSAW         NOT AVBL
CHILLICOTHE      N/A     93  76  57 S7        29.91F HX 105
KIRKSVILLE     MOSUNNY   93  76  57 S10       29.94F HX 105

$$

MOZ041-047>049-056>058-063>065-088>090-097-282000-
...EASTERN AND SOUTHERN MISSOURI...

CITY           SKY/WX    TMP DP  RH WIND       PRES   REMARKS
ST. LOUIS INTL MOSUNNY   99  73  43 VRB3      29.95F HX 109
SPIRIT OF STL  MOSUNNY   95  80  61 VRB5      29.94S HX 114
COLUMBIA       MOSUNNY   92  77  61 SW10      29.95F HX 105
JEFFERSON CITY MOSUNNY   94  74  52 MISG      29.93F HX 104
ROLLA          MOSUNNY   91  77  63 W5        29.98F HX 104
OSAGE BEACH    MOSUNNY   93  73  52 SW9       29.97F HX 102
SPRINGFIELD    MOSUNNY   92  72  51 SW10      30.00F HX  99
BRANSON        MOSUNNY   91  73  55 CALM      30.03F HX 100
JOPLIN         SUNNY     95  71  45 SW16G25   29.96F HX 102
WEST PLAINS    SUNNY     92  72  51 CALM      30.03F HX  99

$$

IAZ060-094-KSZ022-034>040-054-083-096-NEZ052-066-093-282000-
...KANSAS...SOUTHEAST NEBRASKA AND IOWA...

CITY           SKY/WX    TMP DP  RH WIND       PRES   REMARKS
TOPEKA         SUNNY     95  73  48 S13G22    29.86S HX 104
MANHATTAN      SUNNY     99  72  41 S13G22    29.82F HX 108
EMPORIA        SUNNY     98  69  38 S21       29.87F HX 104
CHANUTE        SUNNY     94  72  48 S15G23    29.92F HX 102
WICHITA        SUNNY     97  70  41 S22G29    29.86F HX 103
OMAHA          PTSUNNY   89  74  60 S13       29.85S HX  98
LINCOLN        MOSUNNY   88  73  61 S7        29.86R HX  95
FALLS CITY     SUNNY     91  76  61 S15       29.84F HX 103
LAMONI         PTSUNNY   90  78  68 SE14G21   29.89F HX 104
DES MOINES     CLOUDY    85  76  74 SE16      29.87R HX  94

$$



USA.gov is the U.S. government's official web portal to all federal, state and local government web resources and services.